カタログに戻る

STARLINK-32230

運用中通信VLEO
NORAD 60366·PAYLOAD·🇺🇸 United States

打ち上げ Aug 4, 2024 から Vandenberg Space Force Base

Loading…

次のパス (今後24時間)

TLE

最新Source: CelesTrak SupGP

元期: Sep 14, 2026, 21:10 UTC

1 60366C 24138M   26257.88243056 -.00045213  00000+0 -13356-2 0  2570
2 60366  53.1570 149.9590 0001191  89.6292 358.5794 15.34417876    17

AllMySatでSTARLINK-32230をリアルタイム追跡

Download on the App Store